Theta_e
307 316 320 323 324 324 325 325 325 324 325 326 327 327 326 326 324 324 322 324 327 328 330 327 327 328 327 327 327 326 326 324 325 324 324 323 321 319
305 311 316 320 321 325 324 323 324 324 325 324 324 324 324 321 323 321 321 321 326 328 328 328 327 328 327 326 327 325 325 325 325 325 324 325 323 321
309 308 309 313 314 321 320 324 323 323 322 323 323 320 322 321 321 320 321 322 326 327 327 326 326 328 327 326 326 325 324 323 323 324 325 324 325 323
308 310 312 310 313 314 317 323 325 326 325 324 324 323 322 321 321 322 322 322 325 325 326 326 325 327 326 327 326 325 325 324 324 323 323 323 322 324
307 309 311 313 314 316 318 320 323 323 323 324 325 324 324 323 324 323 321 323 324 324 324 325 326 327 326 327 327 326 326 325 324 324 323 323 324 324
302 305 307 310 312 315 317 318 319 320 322 324 323 323 324 324 323 324 322 322 323 323 322 323 326 327 327 326 327 327 327 326 325 325 324 323 323 323
298 297 298 299 304 310 312 315 317 317 319 319 322 322 322 323 323 323 324 323 323 322 322 322 323 326 326 326 326 326 326 326 325 325 325 324 323 321
296 296 296 296 298 299 300 307 310 314 315 314 314 317 316 317 318 320 322 322 322 323 322 322 322 323 326 326 325 325 325 325 325 324 325 324 323 323
293 294 294 294 295 296 297 299 302 305 304 303 304 305 309 307 313 315 316 314 318 319 321 321 322 324 325 325 325 325 325 324 324 324 324 324 323 323
289 290 292 292 293 295 296 297 297 297 296 294 293 292 294 298 302 303 306 306 311 305 311 319 320 322 321 321 322 322 322 323 323 323 322 322 321 320
283 283 283 285 287 291 294 294 293 292 292 292 293 293 294 295 297 298 300 300 302 302 303 306 306 308 308 311 310 318 317 316 320 320 319 318 318 317
281 281 280 281 282 283 284 285 288 288 290 293 293 293 293 295 295 295 292 294 294 296 296 298 299 300 302 303 303 304 307 304 304 314 314 314 314 314
280 279 279 279 280 281 281 281 280 282 282 283 284 286 287 288 291 291 291 288 290 289 288 291 294 296 295 296 298 299 300 301 299 301 305 306 307 309
277 277 277 278 279 279 279 279 279 280 280 280 280 280 280 281 282 284 286 286 285 286 287 288 288 289 290 293 293 295 296 296 297 299 299 301 301 304
276 276 276 277 277 278 278 278 279 279 278 279 278 277 278 278 279 280 280 282 282 283 284 285 286 286 287 287 288 290 293 294 294 294 294 296 297 298
276 276 276 276 276 276 276 276 276 275 276 276 276 276 276 277 277 278 278 279 279 280 280 282 283 284 285 285 285 286 287 289 291 291 292 293 293 294
275 275 275 275 274 274 273 274 274 274 274 274 274 274 275 275 275 275 275 276 276 277 278 279 280 281 283 283 284 284 284 284 285 287 288 288 288 289
275 274 273 272 272 271 271 271 271 271 271 272 272 272 272 272 273 273 273 274 274 274 274 275 276 278 280 280 281 281 281 282 283 284 284 284 283 286
272 271 270 270 269 269 269 269 269 269 269 270 270 270 270 271 270 270 270 271 272 272 273 274 275 275 277 278 278 279 279 280 281 281 281 282 283 284
270 269 268 268 268 268 268 268 268 268 268 268 269 269 269 268 267 268 268 268 269 271 272 272 273 273 273 275 276 277 278 279 279 280 280 281 282 282
269 269 268 268 268 267 267 268 267 267 267 267 267 267 268 268 267 267 267 267 268 269 270 271 271 273 273 276 277 278 277 278 278 279 279 279 280 280
268 268 268 268 268 268 267 266 266 266 267 266 266 266 266 266 266 266 266 266 267 268 269 269 270 271 273 275 276 276 277 276 277 278 279 279 279 281
268 268 267 267 267 267 267 267 267 267 266 266 266 266 266 265 265 265 265 265 266 266 268 268 269 270 272 273 274 275 276 276 276 277 277 278 279 279
Wind_Speed
38 41 37 28 38 43 39 40 39 30 38 45 41 37 36 43 41 37 37 32 30 36 43 40 41 39 38 39 38 36 36 36 35 30 35 34 35 35
31 40 36 35 28 26 48 51 49 45 31 31 39 41 44 59 61 58 51 46 34 29 37 40 40 40 38 37 40 38 37 36 36 36 33 37 37 36
13 21 27 34 35 33 35 35 39 43 58 55 33 33 48 47 54 58 54 46 33 25 25 34 38 39 38 38 37 37 36 36 34 36 37 36 40 37
11 14 17 25 23 25 30 32 34 32 36 33 37 38 33 51 56 47 38 40 26 24 26 28 34 38 39 40 40 38 37 36 35 35 36 39 38 42
3 4 7 16 20 22 22 23 20 25 27 28 31 30 30 37 38 39 43 36 39 28 29 32 36 38 41 41 41 40 38 38 35 35 35 37 40 41
14 11 8 2 9 16 21 23 22 19 22 26 25 25 23 24 29 27 34 34 34 37 43 32 32 34 41 44 44 43 42 41 41 38 36 36 37 42
26 25 22 17 10 3 12 15 14 16 16 14 18 22 23 22 30 29 29 28 35 41 44 47 33 36 39 44 46 44 44 43 42 40 39 38 38 36
32 30 28 25 23 19 16 9 8 5 10 8 6 8 12 13 18 21 31 37 33 35 37 39 39 33 37 39 40 41 44 43 40 38 38 38 37 37
35 34 33 32 29 26 24 20 15 9 7 9 7 5 9 13 20 20 21 23 23 25 28 27 29 29 30 34 37 38 39 39 39 39 40 39 38 40
33 33 32 31 30 27 24 25 25 23 22 20 17 15 13 10 9 12 15 17 22 20 16 23 25 29 36 35 37 36 38 40 40 39 39 39 40 41
35 35 33 31 28 25 22 25 25 25 22 19 16 14 13 9 9 4 5 5 7 12 11 8 14 18 19 23 24 34 37 34 40 38 37 38 39 40
34 36 36 34 31 28 26 25 22 24 18 15 14 14 14 14 14 14 17 14 7 4 12 6 5 5 6 8 12 17 17 19 19 35 36 37 39 40
34 34 33 30 28 27 26 28 27 21 20 19 18 18 18 18 16 16 16 19 15 12 14 11 9 8 7 6 4 6 8 14 15 13 20 22 26 31
32 30 28 25 24 23 24 22 19 19 20 21 21 22 22 23 21 19 15 13 14 14 15 13 12 11 11 9 7 10 13 15 16 16 16 18 20 22
28 25 23 23 24 24 23 21 21 22 23 23 25 24 23 20 17 14 13 9 10 12 13 13 12 11 11 10 12 13 15 13 11 11 14 14 16 17
26 25 26 26 26 26 25 27 28 27 25 24 24 22 20 20 20 20 18 16 13 12 12 13 13 12 10 10 10 11 12 10 12 12 13 13 14 15
26 27 29 31 32 33 32 31 30 28 28 27 25 23 22 21 20 20 20 19 18 20 19 16 12 12 12 11 10 12 12 11 11 10 9 10 12 12
27 31 32 32 32 33 33 34 34 33 32 28 26 24 23 22 20 19 19 19 19 19 18 19 19 16 12 10 10 13 11 11 10 9 8 7 8 9
27 27 28 27 26 27 29 30 31 31 29 28 28 27 25 22 21 19 18 18 18 17 16 16 16 16 15 12 11 12 16 12 10 8 8 6 7 8
21 19 20 20 20 20 25 26 27 28 29 28 28 27 27 23 19 17 17 19 19 17 17 15 14 15 14 16 18 16 12 13 11 9 8 8 6 6
21 20 18 16 16 16 20 23 23 26 27 28 28 28 27 24 21 20 18 19 18 17 19 18 18 14 14 13 14 15 11 11 10 7 8 5 5 5
21 20 19 18 18 18 18 17 18 20 24 25 27 28 28 24 21 21 20 20 19 19 19 19 19 16 13 12 14 15 13 10 8 8 7 7 4 3
22 22 21 19 18 18 18 19 19 20 21 24 26 28 29 25 22 20 21 20 19 19 19 21 19 16 13 12 12 13 11 10 8 7 9 8 9 8
Wind_Direction
237 235 242 243 238 235 236 235 230 239 241 238 238 243 249 248 251 255 267 272 277 254 245 248 248 247 247 245 244 245 246 246 247 243 237 238 237 240
244 238 246 240 247 246 244 244 250 239 246 237 246 253 254 266 257 253 256 269 270 264 242 240 243 245 246 244 244 243 244 246 246 242 237 236 237 239
273 257 250 248 253 250 252 244 251 248 246 249 242 238 249 241 236 247 256 256 261 261 252 239 241 241 244 242 242 241 244 245 245 242 243 235 238 238
250 253 245 240 249 253 254 256 249 243 244 235 240 245 242 229 248 257 243 239 251 260 253 245 241 241 240 241 241 239 240 242 243 243 244 244 236 238
120 227 243 237 245 247 246 252 247 252 253 247 250 252 253 242 247 253 240 240 251 258 266 260 245 241 240 241 241 240 240 242 240 242 244 245 244 242
80 80 70 48 234 239 248 251 243 226 234 242 254 251 242 254 250 251 248 253 264 267 263 267 254 243 238 240 239 238 238 239 241 242 239 244 244 245
69 67 66 66 65 271 249 251 247 241 230 237 237 250 258 262 265 264 264 263 275 274 268 261 260 249 244 238 240 240 239 237 241 242 241 240 244 247
63 63 65 63 59 54 47 3 322 277 253 272 253 248 259 270 254 254 255 264 253 255 256 256 255 260 251 245 240 239 238 240 241 243 240 240 244 246
64 66 62 58 54 52 48 54 55 52 46 38 25 346 286 295 273 271 270 260 254 243 246 234 236 241 249 242 239 238 237 238 240 236 235 236 239 242
61 55 55 54 51 49 49 49 49 49 48 47 47 40 26 355 303 285 278 269 255 273 253 240 238 237 228 227 233 233 238 236 234 234 239 243 245 246
55 55 52 49 45 44 45 56 57 54 48 46 45 37 21 24 21 6 310 278 247 258 271 247 242 218 229 215 221 221 218 227 230 234 240 243 246 248
50 48 45 40 37 38 40 45 45 43 38 35 35 34 41 28 29 34 35 29 22 307 358 328 269 294 260 232 243 254 243 253 244 231 238 245 247 250
46 44 42 38 36 37 36 38 39 34 35 35 35 34 31 35 34 31 26 26 23 23 9 359 357 339 290 285 268 251 259 257 271 250 236 242 244 245
44 42 41 37 36 39 42 42 37 36 37 36 34 32 32 32 33 30 29 15 13 12 355 360 15 1 344 333 322 287 292 294 293 289 280 267 268 262
48 46 41 37 38 39 39 35 33 34 32 31 32 31 27 22 22 32 34 19 11 4 355 1 1 345 344 337 328 327 324 319 312 307 303 292 285 277
43 44 45 45 43 43 39 37 36 34 33 32 28 23 19 16 14 13 11 6 1 360 4 359 353 348 345 334 335 330 333 325 310 310 306 306 300 291
32 34 34 33 33 35 35 34 32 30 28 26 21 19 15 12 12 9 8 6 6 358 353 354 2 350 347 340 340 336 335 332 334 331 322 313 307 305
25 30 31 31 30 28 27 26 25 24 23 21 18 16 13 11 8 5 3 3 360 357 354 352 354 355 360 347 336 333 337 334 334 332 332 322 313 313
26 26 27 26 25 24 23 22 21 19 16 15 14 12 9 6 5 2 359 357 353 349 348 347 353 355 349 340 324 336 331 338 334 333 330 327 306 306
22 19 17 16 15 14 14 14 13 13 12 13 11 8 6 3 360 358 355 351 346 343 342 346 347 343 334 321 314 312 318 328 338 326 321 316 301 296
12 9 4 0 359 359 358 360 2 5 6 8 7 6 3 1 355 351 347 345 349 341 336 334 334 329 321 317 307 311 315 308 314 310 289 288 281 286
1 358 356 351 343 340 342 343 348 350 355 359 1 1 360 359 353 349 346 342 339 335 330 328 330 331 323 311 311 312 313 306 301 297 286 264 262 286
352 349 346 342 337 332 328 326 329 334 340 347 352 354 355 354 351 348 344 340 335 333 331 329 330 330 317 307 307 310 311 318 303 289 291 279 275 280